Location: Lussas
(44.6119°N, 4.4726°E)
Time: 15:34:54
(UTC+00:00)

Cosmos 1933 - Pass Details

Date: 26 November 2020
Orbit: 546 x 564 km, 82.5° (Epoch: 27 January)

Event Time Altitude Azimuth Distance (km) Brightness Sun altitude
Exits shadow 04:23:20 39° 36° (NE) 855 4.4 -26.2°
Maximum altitude 04:24:18 48° 78° (ENE) 744 4.2 -26.0°
Drops below altitude 10° 04:28:16 10° 153° (SSE) 1,853 6.4 -25.3°
Sets 04:30:29 0° 159° (SSE) 2,744 7.2 -24.9°
